Missoula, MT

7:20 PM MDT on September 26, 2016 (GMT -0600)
Missoula International

Weather History for KMSO - September, 2013

Change the Weather History Date:

Monday, September 23, 2013

  Actual Average Record
Temperature  
Mean Temperature 52 °F 54 °F  
Max Temperature 59 °F 70 °F 91 °F (1938)
Min Temperature 44 °F 39 °F 20 °F (2000)
Degree Days  
Heating Degree Days 13 11  
Month to date heating degree days 69 157  
Since 1 July heating degree days 77 241  
Cooling Degree Days 0 0  
Month to date cooling degree days 87 13  
Year to date cooling degree days 579 330  
Growing Degree Days 2 (Base 50)    
Moisture  
Dew Point 41 °F    
Average Humidity 68    
Maximum Humidity 92    
Minimum Humidity 43    
Precipitation  
Precipitation 0.07 in 0.04 in 1.01 in (2007)
Month to date precipitation 0.42 0.94  
Year to date precipitation 6.73 10.97  
Snow  
Snow 0.00 in - - ()
Month to date snowfall 0.0  
Year to date snowfall 27.4  
Since 1 July snowfall T  
Snow Depth 0.00 in    
Sea Level Pressure  
Sea Level Pressure 29.93 in    
Wind  
Wind Speed 5 mph (NW)    
Max Wind Speed 17 mph    
Max Gust Speed 24 mph    
Visibility 10 miles    
Events Rain    
T = Trace of Precipitation, MM = Missing Value Source: NWS Daily Summary

Daily Weather History Graph

Daily Weather History Graph

Search for Another Location

Airport or City:

Trip Planner

Search our weather history database for the weather conditions in past years. The results will help you decide how hot, cold, wet, or windy it might be!

Date:

Astronomy

Sep. 23, 2013 Rise Set
Actual Time 7:24 AM MDT 7:31 PM MDT
Civil Twilight 6:54 AM MDT 8:01 PM MDT
Nautical Twilight 6:18 AM MDT 8:37 PM MDT
Astronomical Twilight 5:42 AM MDT 9:13 PM MDT
Moon 9:48 PM MDT (9/23) 12:05 PM MDT (9/23)
Length of Visible Light 13h 07m
Length of Day
12h 06m
Waning Gibbous, 81% of the Moon is Illuminated
Sep 23
Waning Gibbous
Sep 26
Last Quarter
Oct 4
New
Oct 11
First Quarter
Oct 18
Full

Hourly Weather History & Observations

Time (MDT) Temp. Windchill Dew Point Humidity Pressure Visibility Wind Dir Wind Speed Gust Speed Precip Events Conditions
12:53 AM 51.1 °F - 46.0 °F 83% 29.75 in 10.0 mi Calm Calm - N/A   Overcast
1:53 AM 51.1 °F - 46.0 °F 83% 29.77 in 10.0 mi ESE 4.6 mph - 0.00 in Rain Light Rain
2:53 AM 51.1 °F - 45.0 °F 80% 29.78 in 10.0 mi ESE 4.6 mph - 0.00 in   Overcast
3:53 AM 48.9 °F - 46.0 °F 90% 29.81 in 5.0 mi NNW 3.5 mph - 0.03 in Rain Rain
4:53 AM 48.0 °F - 45.0 °F 89% 29.84 in 10.0 mi NNW 6.9 mph - 0.01 in Rain Light Rain
5:53 AM 48.9 °F - 42.1 °F 77% 29.86 in 10.0 mi NNE 4.6 mph - 0.00 in   Overcast
6:53 AM 46.9 °F - 43.0 °F 86% 29.88 in 10.0 mi South 3.5 mph - N/A   Overcast
7:53 AM 45.0 °F 43.5 °F 43.0 °F 93% 29.93 in 10.0 mi NW 3.5 mph - N/A   Mostly Cloudy
8:53 AM 48.9 °F - 44.1 °F 83% 29.93 in 10.0 mi West 3.5 mph - N/A   Partly Cloudy
9:53 AM 52.0 °F - 41.0 °F 66% 29.95 in 10.0 mi Calm Calm - N/A   Mostly Cloudy
10:53 AM 55.9 °F - 39.0 °F 53% 29.96 in 10.0 mi West 4.6 mph - N/A   Mostly Cloudy
11:53 AM 54.0 °F - 39.0 °F 57% 29.97 in 10.0 mi SW 11.5 mph - 0.00 in Rain Light Rain
12:53 PM 57.0 °F - 39.9 °F 53% 29.96 in 10.0 mi WNW 10.4 mph - 0.01 in   Scattered Clouds
1:25 PM 53.6 °F - 42.8 °F 67% 29.98 in 10.0 mi West 9.2 mph - 0.02 in Rain Light Rain
1:53 PM 57.0 °F - 39.9 °F 53% 29.96 in 10.0 mi WSW 10.4 mph - 0.02 in   Mostly Cloudy
2:53 PM 57.0 °F - 37.9 °F 49% 29.96 in 10.0 mi WSW 13.8 mph 24.2 mph N/A   Mostly Cloudy
3:53 PM 55.9 °F - 37.9 °F 51% 29.98 in 10.0 mi West 5.8 mph - N/A   Overcast
4:28 PM 55.4 °F - 39.2 °F 54% 29.99 in 10.0 mi WNW 9.2 mph - 0.00 in Rain Light Rain
4:53 PM 57.0 °F - 39.9 °F 53% 29.98 in 10.0 mi NW 4.6 mph - 0.00 in   Overcast
5:53 PM 57.9 °F - 36.0 °F 44% 29.97 in 10.0 mi NNE 5.8 mph - N/A   Overcast
6:53 PM 57.9 °F - 36.0 °F 44% 29.97 in 10.0 mi NNE 4.6 mph - N/A   Overcast
7:53 PM 54.0 °F - 37.0 °F 53% 29.99 in 10.0 mi NNW 4.6 mph - N/A   Mostly Cloudy
8:53 PM 53.1 °F - 37.9 °F 57% 29.99 in 10.0 mi Calm Calm - N/A   Overcast
9:53 PM 50.0 °F - 39.9 °F 68% 30.00 in 10.0 mi Calm Calm - N/A   Overcast
10:53 PM 50.0 °F - 39.9 °F 68% 29.99 in 10.0 mi North 3.5 mph - N/A   Overcast
11:53 PM 48.9 °F - 41.0 °F 74% 29.98 in 10.0 mi Calm Calm - N/A   Overcast